Flag for Germany Weather past 2 weeks in Neuruppin, Brandenburg, Germany

Now
42 °F

Overcast.


Feels Like: 35 °F
Forecast: 36 / 43 °F
Wind: 14 mph from West

Location: Neuruppin

Current Time: Mar 31, 2015 at 8:27:14 PM

Latest Report: Mar 31, 2015 at 8:00 PM


Visibility: 6 mi

Pressure: 29.23 "Hg

Humidity: 84%

Dew point: 37 °F

Location of NeuruppinLocation

Historic Weather in Neuruppin — Graph

°F

Neuruppin temperature yesterday

Maximum temperature yesterday: 49 °F (at 12:00 AM)
Minimum temperature yesterday: 39 °F (at 10:00 PM)
Average temperature yesterday: 43 °F

Past Weeks' High & Low Weather Summary

 TemperatureHumidityPressure
High59 °F (Mar 17, 4:00 PM)98% (Mar 31, 9:00 AM)30.45 "Hg (Mar 31, 9:00 AM)
Low28 °F (Mar 20, 6:00 AM)22% (Mar 18, 3:00 PM)29.00 "Hg (Mar 30, 12:00 AM)
Average43 °F73%29.96 "Hg
* Reported Mar 16 6:00 PM — Mar 31 7:00 PM, Neuruppin, Weather by CustomWeather, © 2015

Note: Actual official high and low records may vary slightly from our data, if they occured in-between our weather recording intervals... More about our weather records

Advertising

Neuruppin weather history for previous 24 hours

 ConditionsComfort  
Time TempWeatherWind HumidityBarometerVisibility
7:00 PM
Tue, Mar 31
43 °FOvercast.10 mph83%29.21 "Hg6 mi
6:00 PM44 °FOvercast.10 mph86%29.15 "Hg6 mi
5:00 PM46 °FOvercast.12 mph75%29.09 "Hg6 mi
4:00 PM47 °FOvercast.7 mph79%29.09 "Hg6 mi
3:00 PM48 °FOvercast.9 mph77%29.06 "Hg6 mi
2:00 PM50 °FOvercast.12 mph71%29.03 "Hg6 mi
1:00 PM48 °FOvercast.12 mph80%29.03 "Hg6 mi
12:00 PM47 °FOvercast.8 mph91%29.03 "Hg6 mi
10:00 AM35 °FLow clouds.5 mph98%29.03 "Hg6 mi
9:00 AM34 °FLow clouds.10 mph98%29.06 "Hg4 mi
8:00 AM34 °FLow clouds.12 mph97%29.15 "Hg1 mi
7:00 AM34 °FLow clouds.9 mph97%29.23 "Hg2 mi
6:00 AM37 °FLight fog.7 mph92%29.35 "Hg6 mi
4:00 AM37 °FOvercast.5 mph82%29.50 "Hg6 mi
3:00 AM37 °FOvercast.3 mph82%29.57 "Hg6 mi
2:00 AM37 °FPassing clouds.5 mph80%29.61 "Hg6 mi
1:00 AM37 °FClear.2 mph81%29.63 "Hg6 mi
12:00 AM38 °FPassing clouds.5 mph79%29.65 "Hg6 mi
10:00 PM
Mon, Mar 30
39 °FPassing clouds.7 mph77%29.62 "Hg6 mi
9:00 PM40 °FPassing clouds.7 mph81%29.59 "Hg6 mi
8:00 PM40 °FLow clouds.9 mph80%29.56 "Hg6 mi
Weather by CustomWeather, © 2015

See weather overviewHow to use our weather pages